STARLINK-34452

Last updated on Thu Jul 03 2025 00:02:07 GMT+0000 (Coordinated Universal Time)

1 64425U 25129P 25183.58335648 -.01557931 00000+0 -18493-1 0 9999 2 64425 69.9997 351.5530 0003257 264.7345 31.8187 15.63975995 3686
UTC large
Height (km)
Speed (km/s)
/
Latitude / Longitude
Inclination (degrees)
Orbital Period (minutes)
Azimuth
Elevation
Range (km)
Doppler Factor

Next 0 passes for location: London (51.5072 / 0.1276)

Sorry there are no passes over London.